Regional Weather Roundup
Issued by NWS Jackson, KY

Home | Current Version | Previous Version | Text Only | Print | Product List | Glossary On
Versions: 1 2 3 4 5 6 7 8 9 10 11 12 13 14 15 16 17 18 19 20 21 22 23 24 25 26 27 28 29 30 31 32 33 34 35 36 37 38 39 40 41 42 43 44 45 46 47 48 49 50
000
ASUS43 KJKL 191710
RWRJKL

EAST KENTUCKY HOURLY WEATHER ROUNDUP
NATIONAL WEATHER SERVICE JACKSON KY
100 PM EDT SUN APR 19 2015

NOTE: "FAIR" INDICATES FEW OR NO CLOUDS BELOW 12,000 FEET WITH
NO SIGNIFICANT WEATHER AND/OR OBSTRUCTIONS TO VISIBILITY.

* THESE REPORTS ARE NOT UNDER NWS QUALITY CONTROL AND MAY NOT
  REPORT WEATHER SUCH AS PRECIPITATION AND FOG.

KYZ079-080-083-085-087-088-110-112-115-119-120-191800
...EASTERN KENTUCKY...

CITY           SKY/WX    TMP DP  RH WIND       PRES   REMARKS
JACKSON        RAIN      63  61  93 VRB7      29.76F FOG
LONDON         CLOUDY    68  60  75 SE12      29.71F
SOMERSET*      CLOUDY    66  63  88 SE12G22   29.69F
MONTICELLO*    PTSUNNY   69  65  87 S15G21    29.69F
MIDDLESBORO*   CLOUDY    65  62  90 S8        29.76F
HARLAN APT*    CLOUDY    63  63 100 SE3       29.79S
HAZARD APT*    LGT RAIN  64  64 100 CALM      29.75F
BLACK MTN*       N/A     55  55 100 E9          N/A
PIKEVILLE APT* LGT RAIN  64  57  77 SE10      29.80F
BIG SANDY*     LGT RAIN  64  62  90 SE8       29.80S
$$

KYZ035-036-041-042-044-050-067-078-099-191800
...CENTRAL KENTUCKY...

CITY           SKY/WX    TMP DP  RH WIND       PRES   REMARKS
MT STERLING*   LGT RAIN  64  61  88 SE17G23   29.73F
FLEMING/MASON* RAIN      63  61  94 SE15      29.75F
DANVILLE*      CLOUDY    63  61  94 SE9       29.68F
RICHMOND*      CLOUDY    64  61  88 SE14G20   29.69F
LEXINGTON      LGT RAIN  63  61  93 SE16      29.68F FOG
FRANKFORT      RAIN      63  61  93 E14       29.64F FOG
$$

KYZ091>093-OHZ055-061-077-WVZ005-015-034-035-042-191800
...SOUTHERN OHIO/WEST VIRGINIA...

CITY           SKY/WX    TMP DP  RH WIND       PRES   REMARKS
COVINGTON      LGT RAIN  62  59  90 SE17G24   29.70F
COLUMBUS       LGT RAIN  71  50  47 S24G37    29.80F
DAYTON         LGT RAIN  65  57  75 SE14      29.75F
WILMINGTON     LGT RAIN  63  59  87 SE17G28   29.75F FOG
HUNTINGTON     LGT RAIN  64  62  93 E6        29.79F FOG
CHARLESTON     LGT RAIN  68  54  60 SE14G25   29.84F
PINEVILLE*     RAIN      64  60  87 MISG      29.91F
BECKLEY        CLOUDY    61  54  77 SE22G31   29.92F
BLUEFIELD      LGT RAIN  60  55  83 SE8G21    29.93F
$$

VAZ002-007-008-TNZ017-027-036-066-071-191800
...SOUTHWEST VIRGINIA/EAST TENNESSEE...

CITY           SKY/WX    TMP DP  RH WIND       PRES   REMARKS
WISE*          RAIN      61  59  94 S8        29.87F
JONESVILLE*    CLOUDY    64  64 100 E6        29.82F
ABINGDON*      LGT RAIN  64  62  93 E7        29.88S
BRISTOL        LGT RAIN  65  63  93 E9        29.83F FOG
KNOXVILLE      CLOUDY    70  65  84 NE6       29.73F
OAK RIDGE      CLOUDY    68  64  87 CALM      29.74F
CROSSVILLE     CLOUDY    68  61  78 S6G18     29.72F
NASHVILLE      PTSUNNY   73  64  73 S13       29.64S
$$

...KEY TO REMARKS...
VSB - VISIBILITY IN MILES
WCI - WIND CHILL INDEX
HX  - HEAT INDEX

$$


USA.gov is the U.S. government's official web portal to all federal, state and local government web resources and services.